Location: Bruch
(44.2051°N, 0.4120°E)
Time: 04:03:54
(UTC+00:00)

ATLAS 3B R/B - Pass Details

Date: 29 November 2020
Orbit: 1013 x 1182 km, 63.8° (Epoch: 08 January)

Event Time Altitude Azimuth Distance (km) Brightness Sun altitude
Exits shadow 03:30:35 27° 24° (NNE) 1,961 4.2 -39.0°
Maximum altitude 03:31:15 27° 33° (NNE) 1,949 4.3 -38.9°
Drops below altitude 10° 03:37:08 10° 89° (E) 2,988 5.8 -37.8°
Sets 03:40:21 0° 101° (ESE) 3,973 6.6 -37.2°
